Date,Time,Wetness (Wet Dry or Ice),Wind Speed (m/s),Temperature (C),Humidity (%),Pressure (mb),Radiation (W/m^2)
2020-02-29,06:00:00,DRY,5.23,7.33,51.7,778.00,0.8
2020-02-29,06:05:00,DRY,7.60,7.20,52.0,778.00,1.1
2020-02-29,06:10:00,DRY,5.53,7.30,51.3,778.00,1.2
2020-02-29,06:15:00,DRY,5.25,7.35,51.5,778.00,1.4
2020-02-29,06:20:00,DRY,6.63,7.27,52.0,778.00,1.4
2020-02-29,06:25:00,DRY,7.30,7.30,52.0,778.00,1.2
2020-02-29,06:30:00,DRY,7.23,7.23,52.0,778.00,1.1
2020-02-29,06:35:00,DRY,5.60,7.30,52.0,778.00,1.2
2020-02-29,06:40:00,DRY,6.00,7.37,52.7,778.00,1.2
2020-02-29,06:45:00,DRY,6.40,7.30,52.5,778.00,1.2
2020-02-29,06:50:00,DRY,6.27,7.33,52.7,778.00,0.9
2020-02-29,06:55:00,DRY,6.25,7.40,53.5,778.00,1.1
2020-02-29,07:00:00,DRY,5.20,7.30,54.0,778.00,1.0
2020-02-29,07:05:00,DRY,7.55,7.45,54.5,778.00,2.4
2020-02-29,07:10:00,DRY,6.27,7.37,54.0,778.00,1.4
2020-02-29,07:15:00,DRY,7.00,7.45,54.0,778.00,1.4
2020-02-29,07:20:00,DRY,7.17,7.53,54.3,778.00,1.4
2020-02-29,07:25:00,DRY,4.90,7.50,54.0,778.00,1.8
2020-02-29,07:30:00,DRY,7.70,7.43,55.0,778.33,4.1
2020-02-29,07:35:00,DRY,7.30,7.45,56.0,779.00,5.7
2020-02-29,07:40:00,DRY,7.03,7.40,56.0,778.33,10.4
2020-02-29,07:45:00,DRY,7.45,7.45,55.5,779.00,18.7
2020-02-29,07:50:00,DRY,6.47,7.50,55.0,779.00,24.3
2020-02-29,07:55:00,DRY,5.75,7.50,53.5,779.00,31.6
2020-02-29,08:00:00,DRY,7.37,7.47,54.3,779.00,42.9
2020-02-29,08:05:00,DRY,5.80,7.55,54.5,779.00,56.2
2020-02-29,08:10:00,DRY,5.40,7.50,54.3,779.00,63.9
2020-02-29,08:15:00,DRY,7.15,7.50,54.0,779.00,70.8
2020-02-29,08:20:00,DRY,5.07,7.57,54.0,779.00,85.1
2020-02-29,08:25:00,DRY,7.35,7.65,55.0,779.00,109.2
2020-02-29,08:30:00,DRY,5.53,7.80,54.3,779.00,134.8
2020-02-29,08:35:00,DRY,5.40,7.80,54.0,778.50,178.9
2020-02-29,08:40:00,DRY,5.93,7.97,53.0,778.67,243.9
2020-02-29,08:45:00,DRY,5.90,8.00,52.0,779.00,219.4
2020-02-29,08:50:00,DRY,5.27,8.00,51.7,779.00,164.5
2020-02-29,08:55:00,DRY,4.65,8.05,51.5,779.00,180.2
2020-02-29,09:00:00,DRY,4.33,8.10,52.0,779.00,207.1
2020-02-29,09:05:00,DRY,4.20,8.15,52.0,779.00,211.4
2020-02-29,09:10:00,DRY,6.07,8.20,52.7,779.00,228.3
2020-02-29,09:15:00,DRY,5.90,8.20,53.5,779.00,232.3
2020-02-29,09:20:00,DRY,5.00,8.30,53.0,779.00,286.9
2020-02-29,09:25:00,DRY,4.30,8.35,53.0,779.50,330.4
2020-02-29,09:30:00,DRY,4.93,8.40,52.7,780.00,276.1
2020-02-29,09:35:00,DRY,4.45,8.40,52.0,780.00,353.1
2020-02-29,09:40:00,DRY,3.93,8.50,52.3,780.00,363.3
2020-02-29,09:45:00,DRY,5.10,8.60,52.5,780.00,394.1
2020-02-29,09:50:00,DRY,5.33,8.63,53.7,780.00,387.9
2020-02-29,09:55:00,DRY,4.45,8.70,53.5,780.00,392.7
2020-02-29,10:00:00,DRY,4.83,8.73,52.7,780.00,440.8
2020-02-29,10:05:00,DRY,4.15,8.85,53.0,780.00,497.2
2020-02-29,10:10:00,DRY,5.20,8.83,53.0,780.00,532.5
2020-02-29,10:15:00,DRY,4.00,9.00,52.0,780.00,558.5
2020-02-29,10:20:00,DRY,4.30,9.13,52.0,780.00,633.5
2020-02-29,10:25:00,DRY,4.75,9.45,51.0,780.00,760.3
2020-02-29,10:30:00,DRY,3.93,9.47,50.3,780.00,554.4
2020-02-29,10:35:00,DRY,4.05,9.35,50.5,780.00,631.1
2020-02-29,10:40:00,DRY,3.57,9.33,50.3,780.00,518.8
2020-02-29,10:45:00,DRY,3.90,9.40,50.0,780.00,553.8
2020-02-29,10:50:00,DRY,3.67,9.60,48.3,780.00,604.6
2020-02-29,10:55:00,DRY,3.90,9.55,49.5,780.00,568.9
2020-02-29,11:00:00,DRY,3.00,9.50,50.3,780.00,541.2
2020-02-29,11:05:00,DRY,3.40,9.85,46.5,780.00,715.8
2020-02-29,11:10:00,DRY,2.50,9.77,47.3,780.00,685.1
2020-02-29,11:15:00,DRY,3.65,10.05,46.0,780.00,468.8
2020-02-29,11:20:00,DRY,2.80,9.93,46.0,780.00,704.7
2020-02-29,11:25:00,DRY,2.50,10.00,46.0,780.00,471.9
2020-02-29,11:30:00,DRY,2.57,10.10,42.0,780.00,598.0
2020-02-29,11:35:00,DRY,1.90,10.10,42.5,780.00,570.2
2020-02-29,11:40:00,DRY,2.90,10.20,40.0,780.00,804.6
2020-02-29,11:45:00,DRY,1.95,10.25,41.5,780.00,904.5
2020-02-29,11:50:00,DRY,2.60,10.67,42.3,780.00,965.4
2020-02-29,11:55:00,DRY,2.65,10.65,43.0,780.00,946.0
2020-02-29,12:00:00,DRY,3.20,10.60,45.3,780.00,793.9
2020-02-29,12:05:00,DRY,1.80,10.90,45.5,780.00,852.2
2020-02-29,12:10:00,DRY,2.90,10.87,44.7,780.00,845.9
2020-02-29,12:15:00,DRY,2.40,10.80,43.5,780.00,913.7
2020-02-29,12:20:00,DRY,2.50,11.07,41.7,780.00,907.9
2020-02-29,12:25:00,DRY,2.60,11.20,40.0,780.00,907.2
2020-02-29,12:30:00,DRY,2.50,10.80,43.3,779.67,789.9
2020-02-29,12:35:00,DRY,1.70,10.80,45.5,779.00,687.0
2020-02-29,12:40:00,DRY,1.47,10.63,48.0,779.00,678.6
2020-02-29,12:45:00,DRY,2.60,10.75,50.5,779.00,974.6
2020-02-29,12:50:00,DRY,2.27,10.83,49.3,779.00,828.2
2020-02-29,12:55:00,DRY,2.30,10.95,50.0,779.00,860.6
2020-02-29,13:00:00,DRY,2.03,10.80,49.3,779.00,842.1
2020-02-29,13:05:00,DRY,2.15,10.80,51.0,779.00,1049.1
2020-02-29,13:10:00,DRY,2.03,11.17,48.7,779.00,1038.3
2020-02-29,13:15:00,DRY,2.20,11.35,49.0,779.00,1029.0
2020-02-29,13:20:00,DRY,2.23,11.40,50.3,779.00,1023.9
2020-02-29,13:25:00,DRY,3.10,11.50,50.5,779.00,1022.1
2020-02-29,13:30:00,DRY,3.40,11.40,53.0,779.00,1016.5
2020-02-29,13:35:00,DRY,2.10,11.10,53.0,779.00,1008.3
2020-02-29,13:40:00,DRY,2.77,11.27,54.0,779.00,1006.2
2020-02-29,13:45:00,DRY,2.80,11.10,54.0,779.00,1002.2
2020-02-29,13:50:00,DRY,1.53,10.90,54.3,779.00,996.0
2020-02-29,13:55:00,DRY,2.50,10.90,55.0,779.00,993.1
2020-02-29,14:00:00,DRY,2.40,11.37,53.0,779.00,991.1
2020-02-29,14:05:00,DRY,1.50,11.00,52.0,779.00,986.5
2020-02-29,14:10:00,DRY,2.67,11.13,52.0,779.00,981.2
2020-02-29,14:15:00,DRY,1.90,11.00,53.0,779.00,973.1
2020-02-29,14:20:00,DRY,1.97,10.90,51.7,779.00,970.5
2020-02-29,14:25:00,DRY,2.85,11.15,51.5,779.00,963.6
2020-02-29,14:30:00,DRY,2.97,11.33,50.0,779.00,958.1
2020-02-29,14:35:00,DRY,2.45,11.10,51.5,779.00,950.8
2020-02-29,14:40:00,DRY,2.60,11.03,50.3,779.00,939.3
2020-02-29,14:45:00,DRY,2.60,10.95,48.5,779.00,931.2
2020-02-29,14:50:00,DRY,2.87,10.97,47.7,779.00,921.7
2020-02-29,14:55:00,DRY,2.85,11.20,46.0,779.00,912.0
2020-02-29,15:00:00,DRY,2.10,11.00,46.3,779.00,901.6
2020-02-29,15:05:00,DRY,2.80,10.65,46.0,779.00,887.8
2020-02-29,15:10:00,DRY,2.87,10.67,49.7,779.00,880.7
2020-02-29,15:15:00,DRY,2.75,10.70,48.5,778.50,867.7
2020-02-29,15:20:00,DRY,2.60,10.97,47.3,778.67,854.5
2020-02-29,15:25:00,DRY,2.70,10.60,48.0,778.50,841.6
2020-02-29,15:30:00,DRY,3.37,10.77,48.0,778.67,828.6
2020-02-29,15:35:00,DRY,2.60,10.55,48.5,778.00,814.2
2020-02-29,15:40:00,DRY,3.07,10.67,49.0,778.33,800.0
2020-02-29,15:45:00,DRY,3.30,10.55,49.5,778.00,785.0
2020-02-29,15:50:00,DRY,2.40,10.37,51.7,778.00,771.9
2020-02-29,15:55:00,DRY,3.05,10.60,49.0,778.00,757.5
2020-02-29,16:00:00,DRY,1.97,10.33,49.7,778.00,740.8
2020-02-29,16:05:00,DRY,1.65,10.40,49.5,778.00,725.6
2020-02-29,16:10:00,DRY,2.27,10.37,49.0,778.00,706.7
2020-02-29,16:15:00,DRY,1.60,10.30,49.0,778.00,686.0
2020-02-29,16:20:00,DRY,2.17,10.00,51.0,778.00,669.7
2020-02-29,16:25:00,DRY,1.45,10.10,50.0,778.00,653.1
2020-02-29,16:30:00,DRY,2.27,10.27,50.7,778.00,633.1
2020-02-29,16:35:00,DRY,1.60,10.15,50.0,778.50,613.1
2020-02-29,16:40:00,DRY,2.17,10.23,50.0,778.00,593.2
2020-02-29,16:45:00,DRY,2.55,10.00,49.5,778.00,574.5
2020-02-29,16:50:00,DRY,1.77,9.87,48.7,778.00,554.2
2020-02-29,16:55:00,DRY,2.30,10.00,49.0,778.00,535.3
2020-02-29,17:00:00,DRY,2.07,9.73,48.3,778.00,514.9
2020-02-29,17:05:00,DRY,2.10,9.75,48.0,778.00,494.1
2020-02-29,17:10:00,DRY,1.93,9.70,47.3,778.00,472.7
2020-02-29,17:15:00,DRY,1.75,9.40,46.5,778.00,451.0
2020-02-29,17:20:00,DRY,2.40,9.43,46.7,778.00,429.4
2020-02-29,17:25:00,DRY,2.30,9.25,47.5,778.50,407.6
2020-02-29,17:30:00,DRY,1.70,9.23,47.3,778.33,388.2
2020-02-29,17:35:00,DRY,1.95,9.25,46.5,778.50,365.8
2020-02-29,17:40:00,DRY,2.47,9.10,45.3,778.33,340.4
2020-02-29,17:45:00,DRY,1.70,9.10,44.5,779.00,318.5
2020-02-29,17:50:00,DRY,1.55,9.15,44.0,778.50,298.6
2020-02-29,17:55:00,DRY,1.60,8.95,44.0,779.00,270.5
2020-02-29,18:00:00,DRY,1.70,8.87,44.0,779.00,246.8
2020-02-29,18:05:00,DRY,1.95,8.80,43.5,779.00,225.3
2020-02-29,18:10:00,DRY,2.53,8.77,44.0,779.00,202.2
2020-02-29,18:15:00,DRY,2.80,8.65,44.0,779.00,177.4
2020-02-29,18:20:00,DRY,2.47,8.53,42.7,779.00,154.0
2020-02-29,18:25:00,DRY,2.50,8.45,43.0,779.00,132.5
2020-02-29,18:30:00,DRY,2.33,8.33,43.0,779.00,113.8
2020-02-29,18:35:00,DRY,2.40,8.25,42.5,779.00,90.5
2020-02-29,18:40:00,DRY,2.47,8.17,43.0,779.00,70.1
2020-02-29,18:45:00,DRY,2.35,8.15,42.5,779.00,50.4
2020-02-29,18:50:00,DRY,2.60,7.93,45.3,779.00,36.7
2020-02-29,18:55:00,DRY,2.75,7.80,45.5,779.00,26.7
2020-02-29,19:00:00,DRY,2.83,7.77,43.3,779.00,18.7
2020-02-29,19:05:00,DRY,3.50,7.75,44.0,779.00,11.9
2020-02-29,19:10:00,DRY,3.53,7.70,45.0,779.00,7.7
2020-02-29,19:15:00,DRY,3.30,7.65,47.0,779.00,4.7
2020-02-29,19:20:00,DRY,3.40,7.53,47.0,779.00,3.5
2020-02-29,19:25:00,DRY,4.20,7.50,46.5,779.00,1.4
2020-02-29,19:30:00,DRY,4.63,7.60,46.3,779.00,1.5
2020-02-29,19:35:00,DRY,4.20,7.50,48.0,779.00,1.6
2020-02-29,19:40:00,DRY,4.07,7.47,48.0,779.00,1.5
2020-02-29,19:45:00,DRY,5.45,7.45,48.5,779.00,1.3
2020-02-29,19:50:00,DRY,5.10,7.43,48.0,779.00,1.7
2020-02-29,19:55:00,DRY,4.50,7.40,48.0,779.00,1.1
2020-02-29,20:00:00,DRY,5.10,7.27,50.0,779.00,1.4
2020-02-29,20:05:00,DRY,4.40,7.30,49.5,779.00,1.2
2020-02-29,20:10:00,DRY,4.87,7.30,50.0,779.00,1.3
2020-02-29,20:15:00,DRY,5.25,7.30,51.0,779.00,1.3
2020-02-29,20:20:00,DRY,4.33,7.27,51.0,779.33,1.3
2020-02-29,20:25:00,DRY,4.55,7.10,51.0,779.50,1.1
2020-02-29,20:30:00,DRY,5.33,7.10,51.3,779.33,1.2
2020-02-29,20:35:00,DRY,5.25,7.10,53.0,780.00,1.3
2020-02-29,20:40:00,DRY,4.30,6.97,54.3,780.00,1.5
2020-02-29,20:45:00,DRY,4.60,6.95,54.5,780.00,0.6
2020-02-29,20:50:00,DRY,4.20,6.90,54.7,780.00,1.0
2020-02-29,20:55:00,DRY,4.35,6.80,55.0,780.00,1.1
2020-02-29,21:00:00,DRY,4.07,6.67,55.7,780.00,1.4
2020-02-29,21:05:00,DRY,4.95,6.70,56.5,780.00,1.3
2020-02-29,21:10:00,DRY,4.83,6.87,57.0,780.00,1.1
2020-02-29,21:15:00,DRY,4.60,6.90,56.5,780.00,1.1
2020-02-29,21:20:00,DRY,4.97,6.87,57.0,780.00,1.2
2020-02-29,21:25:00,DRY,4.80,6.75,57.0,780.00,1.1
2020-02-29,21:30:00,DRY,5.07,6.73,58.0,780.00,1.7
2020-02-29,21:35:00,DRY,5.15,6.70,58.0,780.00,1.2
2020-02-29,21:40:00,DRY,5.57,6.70,58.7,780.00,1.4
2020-02-29,21:45:00,DRY,4.80,6.70,58.5,780.00,1.1
2020-02-29,21:50:00,DRY,4.87,6.67,59.3,780.00,1.3
2020-02-29,21:55:00,DRY,4.95,6.60,61.0,780.00,1.4
2020-02-29,22:00:00,DRY,6.10,6.63,61.0,780.00,1.4
2020-02-29,22:05:00,DRY,5.80,6.70,60.5,780.00,1.1
2020-02-29,22:10:00,DRY,5.50,6.63,60.7,780.00,1.8
2020-02-29,22:15:00,DRY,5.10,6.60,61.0,780.00,1.1
2020-02-29,22:20:00,DRY,5.73,6.53,61.0,780.00,1.3
2020-02-29,22:25:00,DRY,5.05,6.45,61.0,780.00,1.1
2020-02-29,22:30:00,DRY,5.33,6.47,61.0,780.00,1.2
2020-02-29,22:35:00,DRY,5.00,6.50,61.0,780.00,1.1
2020-02-29,22:40:00,DRY,6.57,6.50,60.0,780.00,1.2
2020-02-29,22:45:00,DRY,6.05,6.55,58.0,780.00,0.9
2020-02-29,22:50:00,DRY,5.87,6.53,58.7,780.00,1.0
2020-02-29,22:55:00,DRY,6.20,6.50,58.5,780.00,1.1
2020-02-29,23:00:00,DRY,5.57,6.53,59.0,780.00,1.2
2020-02-29,23:05:00,DRY,6.40,6.45,56.5,780.00,1.7
2020-02-29,23:10:00,DRY,5.47,6.50,58.3,780.00,1.2
2020-02-29,23:15:00,DRY,5.85,6.40,59.0,780.00,1.3
2020-02-29,23:20:00,DRY,6.03,6.50,57.7,780.00,1.0
2020-02-29,23:25:00,DRY,4.80,6.35,59.0,780.00,1.3
2020-02-29,23:30:00,DRY,4.90,6.30,58.0,780.00,1.4
2020-02-29,23:35:00,DRY,5.80,6.30,58.5,780.00,1.9
2020-02-29,23:40:00,DRY,5.03,6.27,59.7,780.00,1.3
2020-02-29,23:45:00,DRY,4.45,6.15,61.5,780.00,0.9
2020-02-29,23:50:00,DRY,5.20,6.30,60.7,780.00,1.3
2020-02-29,23:55:00,DRY,5.50,6.25,60.5,780.00,1.0
2020-03-01,00:00:00,DRY,5.33,6.23,59.3,780.00,1.2
2020-03-01,00:05:00,DRY,5.20,6.05,62.0,780.00,1.4
2020-03-01,00:10:00,DRY,5.37,6.17,61.7,780.00,1.0
2020-03-01,00:15:00,DRY,5.00,6.25,63.0,780.00,1.4
2020-03-01,00:20:00,DRY,4.93,6.03,63.7,780.00,1.1
2020-03-01,00:25:00,DRY,5.70,5.90,64.0,780.00,1.2
2020-03-01,00:30:00,DRY,5.87,6.63,40.0,780.00,0.7
2020-03-01,00:35:00,DRY,6.35,6.85,32.0,780.00,1.0
2020-03-01,00:40:00,DRY,6.63,6.93,31.3,780.00,0.9
2020-03-01,00:45:00,DRY,6.20,6.85,31.5,780.00,1.4
2020-03-01,00:50:00,DRY,5.50,7.20,29.0,780.00,1.3
2020-03-01,00:55:00,DRY,5.95,7.20,29.0,780.00,1.0
2020-03-01,01:00:00,DRY,5.93,7.20,28.7,780.33,1.6
2020-03-01,01:05:00,DRY,5.55,7.25,27.5,780.00,1.4
2020-03-01,01:10:00,DRY,4.73,7.20,28.7,780.00,1.0
2020-03-01,01:15:00,DRY,4.70,7.30,28.0,780.00,1.0
2020-03-01,01:20:00,DRY,5.43,7.23,29.7,780.00,1.1
2020-03-01,01:25:00,DRY,4.80,7.30,31.0,780.00,1.2
2020-03-01,01:30:00,DRY,5.20,7.20,31.3,780.00,1.2
2020-03-01,01:35:00,DRY,4.65,7.25,30.5,780.00,2.0
2020-03-01,01:40:00,DRY,4.50,7.20,30.7,780.00,0.9
2020-03-01,01:45:00,DRY,5.10,7.10,31.0,780.00,1.3
2020-03-01,01:50:00,DRY,4.80,7.07,29.7,780.00,0.8
2020-03-01,01:55:00,DRY,4.95,7.00,30.5,780.00,1.1
2020-03-01,02:00:00,DRY,5.00,7.13,30.7,780.00,1.0
2020-03-01,02:05:00,DRY,4.40,7.10,29.5,780.00,0.9
2020-03-01,02:10:00,DRY,5.43,7.17,30.0,780.00,1.2
2020-03-01,02:15:00,DRY,4.90,7.00,29.0,780.00,1.1
2020-03-01,02:20:00,DRY,5.47,7.07,27.7,780.00,0.9
2020-03-01,02:25:00,DRY,5.00,7.00,27.5,780.00,1.1
2020-03-01,02:30:00,DRY,5.23,7.13,28.7,780.00,1.2
2020-03-01,02:35:00,DRY,6.25,7.05,32.5,780.00,1.1
2020-03-01,02:40:00,DRY,5.07,7.00,32.0,780.00,1.0
2020-03-01,02:45:00,DRY,5.65,6.95,32.0,780.00,1.1
2020-03-01,02:50:00,DRY,4.93,7.00,35.0,780.00,1.2
2020-03-01,02:55:00,DRY,4.95,7.00,37.0,780.00,1.1
2020-03-01,03:00:00,DRY,5.00,6.93,34.0,779.67,1.1
2020-03-01,03:05:00,DRY,5.05,6.75,33.5,779.00,1.0
2020-03-01,03:10:00,DRY,6.83,6.80,30.0,779.00,1.4
2020-03-01,03:15:00,DRY,5.40,6.85,28.5,779.00,1.8
2020-03-01,03:20:00,DRY,5.97,6.70,29.3,779.00,1.2
2020-03-01,03:25:00,DRY,6.05,6.80,30.0,779.00,1.1
2020-03-01,03:30:00,DRY,6.43,6.77,28.0,779.00,1.1
2020-03-01,03:35:00,DRY,5.95,6.85,29.5,779.00,1.1
2020-03-01,03:40:00,DRY,6.33,6.80,28.0,779.00,0.9
2020-03-01,03:45:00,DRY,6.65,6.70,29.0,779.00,1.1
2020-03-01,03:50:00,DRY,6.20,6.83,31.0,779.00,0.9
2020-03-01,03:55:00,DRY,6.65,6.65,32.5,779.00,1.4
2020-03-01,04:00:00,DRY,6.57,6.73,32.0,779.00,1.2
2020-03-01,04:05:00,DRY,5.80,6.60,35.5,779.00,1.0
2020-03-01,04:10:00,DRY,6.03,6.50,41.0,779.00,0.7
2020-03-01,04:15:00,DRY,6.20,6.60,39.0,779.00,0.9
2020-03-01,04:20:00,DRY,6.77,6.83,39.3,779.00,1.0
2020-03-01,04:25:00,DRY,6.80,6.70,33.5,779.00,1.0
2020-03-01,04:30:00,DRY,7.43,6.43,34.0,779.00,1.2
2020-03-01,04:35:00,DRY,7.05,6.35,39.0,779.00,1.1
2020-03-01,04:40:00,DRY,6.57,6.23,33.7,779.00,0.9
2020-03-01,04:45:00,DRY,6.90,6.35,38.0,778.00,1.2
2020-03-01,04:50:00,DRY,6.23,6.30,37.3,778.00,1.3
2020-03-01,04:55:00,DRY,6.80,6.15,37.0,778.00,1.4
2020-03-01,05:00:00,DRY,7.27,6.20,35.0,778.00,1.1
2020-03-01,05:05:00,DRY,6.85,6.20,41.5,778.00,1.1
2020-03-01,05:10:00,DRY,7.60,6.37,43.3,778.00,1.0
2020-03-01,05:15:00,DRY,7.10,6.10,39.0,778.00,1.8
2020-03-01,05:20:00,DRY,7.23,6.13,49.3,778.00,1.5
2020-03-01,05:25:00,DRY,7.55,6.15,52.5,778.00,1.4
2020-03-01,05:30:00,DRY,7.70,6.27,61.7,778.00,1.1
2020-03-01,05:35:00,DRY,7.00,6.35,66.5,778.00,1.1
2020-03-01,05:40:00,DRY,8.63,6.57,70.0,778.33,1.0
2020-03-01,05:45:00,DRY,7.60,6.35,67.5,778.00,1.2
2020-03-01,05:50:00,DRY,8.97,6.30,69.7,778.00,1.0
2020-03-01,05:55:00,DRY,8.40,6.40,70.5,778.00,1.0
2020-03-01,06:00:00,DRY,8.47,6.40,68.3,778.67,1.2
2020-03-01,06:05:00,DRY,8.40,6.30,69.0,779.00,1.3
2020-03-01,06:10:00,DRY,7.97,6.17,70.7,779.00,1.2
2020-03-01,06:15:00,DRY,8.35,6.05,71.0,779.00,1.0
2020-03-01,06:20:00,DRY,7.97,6.07,69.7,779.00,0.9
2020-03-01,06:25:00,DRY,7.95,6.05,71.0,779.00,1.1
2020-03-01,06:30:00,DRY,7.50,5.93,70.7,779.00,0.9
2020-03-01,06:35:00,DRY,8.15,6.05,73.5,779.00,1.4
2020-03-01,06:40:00,DRY,8.87,6.13,71.7,779.00,1.3
2020-03-01,06:45:00,DRY,6.50,6.05,71.5,779.00,0.7
2020-03-01,06:50:00,DRY,7.50,6.03,70.3,779.00,1.2
2020-03-01,06:55:00,DRY,8.00,6.15,72.0,779.00,1.8
2020-03-01,07:00:00,DRY,7.53,6.10,71.7,779.00,1.3
2020-03-01,07:05:00,DRY,7.50,6.00,72.5,779.00,1.3
2020-03-01,07:10:00,DRY,7.50,6.13,75.0,779.00,1.2
2020-03-01,07:15:00,DRY,7.40,6.10,76.5,779.00,0.8
2020-03-01,07:20:00,DRY,7.90,6.10,76.7,779.00,1.7
2020-03-01,07:25:00,DRY,7.65,6.10,77.5,779.00,2.5
2020-03-01,07:30:00,DRY,6.97,6.13,78.0,779.00,3.9
2020-03-01,07:35:00,DRY,8.50,6.25,78.0,779.00,5.9
2020-03-01,07:40:00,DRY,8.13,6.20,78.3,779.00,10.6
2020-03-01,07:45:00,DRY,6.65,6.15,79.0,779.00,18.1
2020-03-01,07:50:00,DRY,7.13,6.37,77.3,779.00,23.0
2020-03-01,07:55:00,DRY,6.70,6.40,77.0,780.00,31.0
2020-03-01,08:00:00,DRY,7.37,6.33,78.3,779.00,40.4
2020-03-01,08:05:00,DRY,7.40,6.45,78.5,779.00,52.8
2020-03-01,08:10:00,DRY,8.03,6.53,83.3,779.00,53.6
2020-03-01,08:15:00,DRY,7.25,6.40,78.0,779.50,81.3
2020-03-01,08:20:00,DRY,7.37,6.43,77.7,779.33,95.7
2020-03-01,08:25:00,DRY,8.10,6.55,76.5,779.00,110.5
2020-03-01,08:30:00,DRY,6.00,6.50,76.3,779.33,117.1
2020-03-01,08:35:00,DRY,7.95,6.40,77.0,780.00,136.1
2020-03-01,08:40:00,DRY,7.53,6.57,76.0,779.33,267.2
2020-03-01,08:45:00,DRY,7.65,6.90,75.0,780.00,297.3
2020-03-01,08:50:00,DRY,7.07,6.87,75.3,779.33,321.8
2020-03-01,08:55:00,DRY,6.80,6.95,75.0,779.00,343.9
2020-03-01,09:00:00,DRY,7.17,6.97,76.0,779.33,365.4
2020-03-01,09:05:00,DRY,6.90,6.95,75.5,779.00,387.6
2020-03-01,09:10:00,DRY,8.03,7.10,73.7,779.67,410.0
2020-03-01,09:15:00,DRY,6.65,7.15,73.5,779.00,431.0
2020-03-01,09:20:00,DRY,7.87,7.20,73.0,780.00,452.9
2020-03-01,09:25:00,DRY,7.70,7.25,72.0,779.00,474.3
2020-03-01,09:30:00,DRY,7.03,7.30,72.3,780.00,495.5
2020-03-01,09:35:00,DRY,7.15,7.30,74.0,780.00,518.2
2020-03-01,09:40:00,DRY,7.13,7.40,74.3,779.33,539.6
2020-03-01,09:45:00,DRY,7.45,7.45,74.0,780.00,560.8
2020-03-01,09:50:00,DRY,7.67,7.50,74.3,780.00,582.0
2020-03-01,09:55:00,DRY,7.70,7.65,73.0,779.00,603.2
2020-03-01,10:00:00,DRY,7.10,7.77,75.3,779.00,622.5
2020-03-01,10:05:00,DRY,7.00,8.00,75.5,779.00,642.1
2020-03-01,10:10:00,DRY,7.13,8.13,72.3,779.67,661.7
2020-03-01,10:15:00,DRY,7.85,8.05,73.5,780.00,680.5
2020-03-01,10:20:00,DRY,8.13,8.17,71.7,779.00,698.4
2020-03-01,10:25:00,DRY,8.65,8.20,72.5,779.00,717.0
2020-03-01,10:30:00,DRY,8.33,8.33,72.3,779.00,734.8
2020-03-01,10:35:00,DRY,7.75,8.30,72.5,779.00,752.2
2020-03-01,10:40:00,DRY,8.73,8.47,75.7,779.00,767.3
2020-03-01,10:45:00,DRY,8.60,8.40,77.0,779.00,782.5
2020-03-01,10:50:00,DRY,7.97,8.57,75.3,779.00,798.0
2020-03-01,10:55:00,DRY,8.15,8.55,77.0,779.00,813.8
2020-03-01,11:00:00,DRY,7.77,8.50,75.7,779.00,828.9
2020-03-01,11:05:00,DRY,7.95,8.55,73.5,779.00,846.8
2020-03-01,11:10:00,DRY,7.17,8.67,76.0,779.00,853.2
2020-03-01,11:15:00,DRY,8.50,8.90,77.0,779.00,869.9
2020-03-01,11:20:00,DRY,7.67,8.93,78.3,779.00,885.8
2020-03-01,11:25:00,DRY,7.40,8.70,80.5,779.00,900.0
2020-03-01,11:30:00,DRY,6.80,9.00,79.7,779.00,940.1
2020-03-01,11:35:00,DRY,6.15,9.25,78.5,779.00,919.0
2020-03-01,11:40:00,DRY,7.03,9.23,76.7,779.00,930.9
2020-03-01,11:45:00,DRY,7.05,9.25,78.0,779.00,945.6
2020-03-01,11:50:00,DRY,6.90,9.40,78.0,779.00,952.2
2020-03-01,11:55:00,DRY,7.85,9.50,75.0,779.00,960.5
2020-03-01,12:00:00,DRY,7.73,9.57,75.3,779.00,972.5
2020-03-01,12:05:00,DRY,7.75,9.60,74.0,779.00,985.2
2020-03-01,12:10:00,DRY,8.27,9.77,71.3,779.00,988.4
2020-03-01,12:15:00,DRY,8.20,9.70,76.0,779.00,994.9
2020-03-01,12:20:00,DRY,7.10,9.60,76.0,779.00,1005.2
2020-03-01,12:25:00,DRY,6.45,9.75,76.0,779.00,1008.8
2020-03-01,12:30:00,DRY,6.90,9.70,75.3,779.00,1012.6
2020-03-01,12:35:00,DRY,6.05,9.70,75.0,779.00,1015.8
2020-03-01,12:40:00,DRY,6.10,9.90,74.7,779.00,1019.9
2020-03-01,12:45:00,DRY,6.70,9.95,74.5,779.00,1025.0
2020-03-01,12:50:00,DRY,6.87,10.10,72.7,779.00,1029.7
2020-03-01,12:55:00,DRY,5.85,10.00,73.5,779.00,1032.0
2020-03-01,13:00:00,DRY,6.93,10.30,72.0,779.00,1035.2
2020-03-01,13:05:00,DRY,5.65,10.20,70.5,779.00,1039.0
2020-03-01,13:10:00,DRY,6.47,10.37,69.7,779.00,1038.6
2020-03-01,13:15:00,DRY,6.80,10.40,70.5,779.00,1039.7
2020-03-01,13:20:00,DRY,6.63,10.37,72.7,779.00,1046.8
2020-03-01,13:25:00,DRY,8.20,10.45,72.0,779.00,1041.8
2020-03-01,13:30:00,DRY,6.50,10.40,72.0,779.00,1041.2
2020-03-01,13:35:00,DRY,6.30,10.30,70.0,779.00,1040.3
2020-03-01,13:40:00,DRY,6.87,10.60,70.7,778.33,1038.1
2020-03-01,13:45:00,DRY,6.10,10.90,67.5,779.00,1034.4
2020-03-01,13:50:00,DRY,6.83,10.67,69.7,778.33,1031.8
2020-03-01,13:55:00,DRY,6.40,10.60,70.0,778.00,1028.2
2020-03-01,14:00:00,DRY,5.67,10.50,70.3,778.00,1038.8
2020-03-01,14:05:00,DRY,6.75,10.60,70.5,778.00,1020.4
2020-03-01,14:10:00,DRY,7.10,10.70,71.0,778.00,1016.3
2020-03-01,14:15:00,DRY,6.35,10.10,73.0,778.00,1015.9
2020-03-01,14:20:00,DRY,6.63,10.43,70.3,778.00,1005.0
2020-03-01,14:25:00,DRY,7.60,10.40,70.5,778.00,998.0
2020-03-01,14:30:00,DRY,7.03,10.33,70.7,778.00,989.3
2020-03-01,14:35:00,DRY,8.05,10.40,69.0,778.00,984.7
2020-03-01,14:40:00,DRY,8.20,10.23,70.0,778.00,973.4
2020-03-01,14:45:00,DRY,7.00,10.55,68.5,778.00,964.5
2020-03-01,14:50:00,DRY,8.97,10.33,69.7,778.00,955.2
2020-03-01,14:55:00,DRY,7.90,10.15,71.0,778.00,944.6
2020-03-01,15:00:00,DRY,8.50,10.13,69.7,778.00,935.1
2020-03-01,15:05:00,DRY,8.30,10.35,67.0,778.00,924.6
2020-03-01,15:10:00,DRY,7.80,10.30,65.7,778.00,913.9
2020-03-01,15:15:00,DRY,7.05,10.20,66.5,778.00,902.5
2020-03-01,15:20:00,DRY,8.40,10.07,69.7,778.00,887.9
2020-03-01,15:25:00,DRY,9.55,10.10,68.5,778.00,875.4
2020-03-01,15:30:00,DRY,8.07,9.83,70.7,778.00,862.9
2020-03-01,15:35:00,DRY,7.55,10.10,70.0,778.00,850.0
2020-03-01,15:40:00,DRY,8.77,9.77,71.0,778.00,834.4
2020-03-01,15:45:00,DRY,8.60,9.70,70.5,778.00,819.5
2020-03-01,15:50:00,DRY,8.60,9.67,70.3,778.00,804.3
2020-03-01,15:55:00,DRY,7.10,10.05,67.0,778.00,790.0
2020-03-01,16:00:00,DRY,7.57,9.83,69.3,778.00,772.0
2020-03-01,16:05:00,DRY,6.10,9.60,70.5,778.00,755.1
2020-03-01,16:10:00,DRY,7.17,9.60,70.0,778.00,738.6
2020-03-01,16:15:00,DRY,7.85,9.55,70.5,778.00,722.5
2020-03-01,16:20:00,DRY,7.10,9.60,71.3,778.00,703.9
2020-03-01,16:25:00,DRY,7.50,9.55,70.5,778.00,687.4
2020-03-01,16:30:00,DRY,6.67,9.37,71.3,778.00,667.2
2020-03-01,16:35:00,DRY,7.05,9.35,72.0,778.00,646.4
2020-03-01,16:40:00,DRY,6.93,9.30,72.0,778.00,628.1
2020-03-01,16:45:00,DRY,7.80,9.25,72.5,778.00,608.3
2020-03-01,16:50:00,DRY,8.20,9.07,72.7,778.00,587.8
2020-03-01,16:55:00,DRY,8.00,9.20,73.0,778.00,567.4
2020-03-01,17:00:00,DRY,8.17,9.23,73.0,778.00,547.6
2020-03-01,17:05:00,DRY,7.65,8.95,73.5,778.00,526.3
2020-03-01,17:10:00,DRY,9.13,8.83,74.0,778.00,504.8
2020-03-01,17:15:00,DRY,7.80,8.75,73.0,778.00,483.4
2020-03-01,17:20:00,DRY,8.87,8.73,72.7,778.00,461.5
2020-03-01,17:25:00,DRY,7.50,8.80,73.0,778.00,440.8
2020-03-01,17:30:00,DRY,9.63,8.73,73.3,778.00,418.9
2020-03-01,17:35:00,DRY,8.75,8.45,74.0,778.00,396.9
2020-03-01,17:40:00,DRY,7.17,8.43,74.7,778.00,374.6
2020-03-01,17:45:00,DRY,8.40,8.50,76.0,778.00,353.0
2020-03-01,17:50:00,DRY,8.83,8.47,74.7,778.00,330.3
2020-03-01,17:55:00,DRY,6.90,8.40,75.0,778.00,308.0
2020-03-01,18:00:00,DRY,7.80,8.50,72.7,778.00,287.3
2020-03-01,18:05:00,DRY,8.95,8.50,73.5,778.00,265.2
2020-03-01,18:10:00,DRY,8.37,8.43,71.3,778.00,243.4
2020-03-01,18:15:00,DRY,6.85,8.40,72.0,778.00,221.6
2020-03-01,18:20:00,DRY,8.40,8.33,69.0,778.00,201.9
2020-03-01,18:25:00,DRY,9.10,8.40,65.5,778.00,181.9
2020-03-01,18:30:00,DRY,9.10,8.30,68.3,778.00,161.4
2020-03-01,18:35:00,DRY,8.55,8.20,69.0,778.00,136.6
2020-03-01,18:40:00,DRY,8.77,8.07,71.0,778.00,108.2
2020-03-01,18:45:00,DRY,8.90,8.05,70.0,778.00,34.5
2020-03-01,18:50:00,DRY,8.03,7.90,73.0,778.00,22.7
2020-03-01,18:55:00,DRY,10.15,7.70,75.0,778.00,19.6
2020-03-01,19:00:00,DRY,9.40,7.67,75.0,778.00,16.3
2020-03-01,19:05:00,DRY,8.95,7.55,75.0,778.00,13.2
2020-03-01,19:10:00,DRY,8.60,7.47,74.7,778.00,10.2
2020-03-01,19:15:00,DRY,8.00,7.40,74.5,778.00,6.5
2020-03-01,19:20:00,DRY,8.00,7.30,73.0,778.00,3.9
2020-03-01,19:25:00,DRY,8.40,7.25,72.5,778.00,2.0
2020-03-01,19:30:00,DRY,9.10,7.13,72.0,778.00,1.8
2020-03-01,19:35:00,DRY,9.65,7.25,73.5,778.00,1.4
2020-03-01,19:40:00,DRY,9.43,7.23,72.7,778.00,1.4
2020-03-01,19:45:00,DRY,9.70,7.00,71.0,778.00,1.4
2020-03-01,19:50:00,DRY,9.27,6.93,74.3,778.00,1.4
2020-03-01,19:55:00,DRY,8.40,7.00,77.0,778.00,1.3
2020-03-01,20:00:00,DRY,8.83,6.87,74.0,778.00,1.3
2020-03-01,20:05:00,DRY,8.85,6.80,74.0,778.00,1.9
2020-03-01,20:10:00,DRY,8.13,6.87,77.7,778.00,1.5
2020-03-01,20:15:00,DRY,8.85,6.85,79.5,778.00,1.5
2020-03-01,20:20:00,DRY,9.60,6.77,79.7,778.00,1.5
2020-03-01,20:25:00,DRY,9.80,6.85,79.5,778.00,1.4
2020-03-01,20:30:00,DRY,8.90,6.77,79.3,778.00,1.3
2020-03-01,20:35:00,DRY,9.25,6.75,81.5,778.00,1.4